User: anonymous
Location: Unspecified
(0.0000°N, 0.0000°E)
Time: 11:45:18
(UTC+00:00)
Language:

X-37B - Orbit

View from above orbital plane
View from above orbital plane
View from above satellite
View from above satellite

Ground track
Ground track

The orbit data is extracted from the following two-line orbital elements,

1 39025U 12071A   14228.81223735 0.00010000  00000-0  43631-4 0    03
2 39025  43.5000 123.4169 0010500 289.4138  70.5857 15.83673122    00
Epoch (UTC): 16 August 2014 19:29:37
Eccentricity: 0.0010500
inclination: 43.5000°
perigee height: 313 km
apogee height: 327 km
right ascension of ascending node: 123.4169°
argument of perigee: 289.4138°
revolutions per day: 15.83673122
mean anomaly at epoch: 70.5857°
orbit number at epoch: 0

The dashed part of the orbit path shows where the satellite is in the earth's shadow,  

DLR